Year,Month,Day,Hour,Minute,Value (Times are PST for temperature in C)
2006,06,25,00,00,19.10
2006,06,25,00,01,19.10
2006,06,25,00,02,19.20
2006,06,25,00,03,19.20
2006,06,25,00,04,19.20
2006,06,25,00,05,19.20
2006,06,25,00,06,19.20
2006,06,25,00,07,19.10
2006,06,25,00,08,19.10
2006,06,25,00,09,19.10
2006,06,25,00,10,19.10
2006,06,25,00,11,19.10
2006,06,25,00,12,19.10
2006,06,25,00,13,19.10
2006,06,25,00,14,19.10
2006,06,25,00,15,19.10
2006,06,25,00,16,19.10
2006,06,25,00,17,19.10
2006,06,25,00,18,19.10
2006,06,25,00,19,18.90
2006,06,25,00,20,18.90
2006,06,25,00,21,18.90
2006,06,25,00,22,18.80
2006,06,25,00,23,18.80
2006,06,25,00,24,18.80
2006,06,25,00,25,18.80
2006,06,25,00,26,18.80
2006,06,25,00,27,18.70
2006,06,25,00,28,18.80
2006,06,25,00,29,18.70
2006,06,25,00,30,18.70
2006,06,25,00,31,18.70
2006,06,25,00,32,18.60
2006,06,25,00,33,18.60
2006,06,25,00,34,18.50
2006,06,25,00,35,18.40
2006,06,25,00,36,18.30
2006,06,25,00,37,18.20
2006,06,25,00,38,18.20
2006,06,25,00,39,18.20
2006,06,25,00,40,18.10
2006,06,25,00,41,18.00
2006,06,25,00,42,17.90
2006,06,25,00,43,17.90
2006,06,25,00,44,17.90
2006,06,25,00,45,17.90
2006,06,25,00,46,17.90
2006,06,25,00,47,17.90
2006,06,25,00,48,17.90
2006,06,25,00,49,17.90
2006,06,25,00,50,17.90
2006,06,25,00,51,17.90
2006,06,25,00,52,17.90
2006,06,25,00,53,17.90
2006,06,25,00,54,17.90
2006,06,25,00,55,17.80
2006,06,25,00,56,17.70
2006,06,25,00,57,17.70
2006,06,25,00,58,17.70
2006,06,25,00,59,17.70
2006,06,25,01,00,17.70
2006,06,25,01,01,17.70
2006,06,25,01,02,17.70
2006,06,25,01,03,17.70
2006,06,25,01,04,17.70
2006,06,25,01,05,17.70
2006,06,25,01,06,17.70
2006,06,25,01,07,17.70
2006,06,25,01,08,17.70
2006,06,25,01,09,17.70
2006,06,25,01,10,17.70
2006,06,25,01,11,17.70
2006,06,25,01,12,17.70
2006,06,25,01,13,17.70
2006,06,25,01,14,17.70
2006,06,25,01,15,17.70
2006,06,25,01,16,17.70
2006,06,25,01,17,17.80
2006,06,25,01,18,17.80
2006,06,25,01,19,17.80
2006,06,25,01,20,17.80
2006,06,25,01,21,17.70
2006,06,25,01,22,17.60
2006,06,25,01,23,17.50
2006,06,25,01,24,17.50
2006,06,25,01,25,17.40
2006,06,25,01,26,17.30
2006,06,25,01,27,17.30
2006,06,25,01,28,17.30
2006,06,25,01,29,17.30
2006,06,25,01,30,17.30
2006,06,25,01,31,17.30
2006,06,25,01,32,17.30
2006,06,25,01,33,17.30
2006,06,25,01,34,17.30
2006,06,25,01,35,17.30
2006,06,25,01,36,17.30
2006,06,25,01,37,17.30
2006,06,25,01,38,17.30
2006,06,25,01,39,17.30
2006,06,25,01,40,17.30
2006,06,25,01,41,17.30
2006,06,25,01,42,17.30
2006,06,25,01,43,17.30
2006,06,25,01,44,17.30
2006,06,25,01,45,17.30
2006,06,25,01,46,17.30
2006,06,25,01,47,17.30
2006,06,25,01,48,17.30
2006,06,25,01,49,17.30
2006,06,25,01,50,17.30
2006,06,25,01,51,17.20
2006,06,25,01,52,17.20
2006,06,25,01,53,17.20
2006,06,25,01,54,17.30
2006,06,25,01,55,17.30
2006,06,25,01,56,17.30
2006,06,25,01,57,17.30
2006,06,25,01,58,17.20
2006,06,25,01,59,17.10
2006,06,25,02,00,17.00
2006,06,25,02,01,17.00
2006,06,25,02,02,17.00
2006,06,25,02,03,17.00
2006,06,25,02,04,17.00
2006,06,25,02,05,17.00
2006,06,25,02,06,17.00
2006,06,25,02,07,17.00
2006,06,25,02,08,17.00
2006,06,25,02,09,16.90
2006,06,25,02,10,16.90
2006,06,25,02,11,16.90
2006,06,25,02,12,16.90
2006,06,25,02,13,16.80
2006,06,25,02,14,16.80
2006,06,25,02,15,16.80
2006,06,25,02,16,16.80
2006,06,25,02,17,16.90
2006,06,25,02,18,16.90
2006,06,25,02,19,17.00
2006,06,25,02,20,17.00
2006,06,25,02,21,17.00
2006,06,25,02,22,17.00
2006,06,25,02,23,17.00
2006,06,25,02,24,16.90
2006,06,25,02,25,16.90
2006,06,25,02,26,16.90
2006,06,25,02,27,16.90
2006,06,25,02,28,16.90
2006,06,25,02,29,16.90
2006,06,25,02,30,16.90
2006,06,25,02,31,17.00
2006,06,25,02,32,17.00
2006,06,25,02,33,17.00
2006,06,25,02,34,17.00
2006,06,25,02,35,16.90
2006,06,25,02,36,16.90
2006,06,25,02,37,16.90
2006,06,25,02,38,16.90
2006,06,25,02,39,16.90
2006,06,25,02,40,16.90
2006,06,25,02,41,16.80
2006,06,25,02,42,16.80
2006,06,25,02,43,16.80
2006,06,25,02,44,16.70
2006,06,25,02,45,16.70
2006,06,25,02,46,16.70
2006,06,25,02,47,16.60
2006,06,25,02,48,16.50
2006,06,25,02,49,16.40
2006,06,25,02,50,16.40
2006,06,25,02,51,16.30
2006,06,25,02,52,16.20
2006,06,25,02,53,16.10
2006,06,25,02,54,16.10
2006,06,25,02,55,16.10
2006,06,25,02,56,16.10
2006,06,25,02,57,15.90
2006,06,25,02,58,15.80
2006,06,25,02,59,15.80
2006,06,25,03,00,15.80
2006,06,25,03,01,15.80
2006,06,25,03,02,15.80
2006,06,25,03,03,15.80
2006,06,25,03,04,15.80
2006,06,25,03,05,15.80
2006,06,25,03,06,15.90
2006,06,25,03,07,15.90
2006,06,25,03,08,15.90
2006,06,25,03,09,15.90
2006,06,25,03,10,15.90
2006,06,25,03,11,15.90
2006,06,25,03,12,15.80
2006,06,25,03,13,15.80
2006,06,25,03,14,15.80
2006,06,25,03,15,15.80
2006,06,25,03,16,15.80
2006,06,25,03,17,15.80
2006,06,25,03,18,15.80
2006,06,25,03,19,15.80
2006,06,25,03,20,15.80
2006,06,25,03,21,15.80
2006,06,25,03,22,15.80
2006,06,25,03,23,15.80
2006,06,25,03,24,15.70
2006,06,25,03,25,15.70
2006,06,25,03,26,15.60
2006,06,25,03,27,15.60
2006,06,25,03,28,15.60
2006,06,25,03,29,15.60
2006,06,25,03,30,15.60
2006,06,25,03,31,15.50
2006,06,25,03,32,15.50
2006,06,25,03,33,15.50
2006,06,25,03,34,15.60
2006,06,25,03,35,15.60
2006,06,25,03,36,15.60
2006,06,25,03,37,15.60
2006,06,25,03,38,15.70
2006,06,25,03,39,15.70
2006,06,25,03,40,15.70
2006,06,25,03,41,15.70
2006,06,25,03,42,15.70
2006,06,25,03,43,15.70
2006,06,25,03,44,15.70
2006,06,25,03,45,15.80
2006,06,25,03,46,15.80
2006,06,25,03,47,15.80
2006,06,25,03,48,15.80
2006,06,25,03,49,15.80
2006,06,25,03,50,15.80
2006,06,25,03,51,15.80
2006,06,25,03,52,15.80
2006,06,25,03,53,15.80
2006,06,25,03,54,15.80
2006,06,25,03,55,15.80
2006,06,25,03,56,15.80
2006,06,25,03,57,15.80
2006,06,25,03,58,15.80
2006,06,25,03,59,15.80
2006,06,25,04,00,15.70
2006,06,25,04,01,15.70
2006,06,25,04,02,15.70
2006,06,25,04,03,15.70
2006,06,25,04,04,15.70
2006,06,25,04,05,15.70
2006,06,25,04,06,15.70
2006,06,25,04,07,15.70
2006,06,25,04,08,15.70
2006,06,25,04,09,15.70
2006,06,25,04,10,15.70
2006,06,25,04,11,15.70
2006,06,25,04,12,15.70
2006,06,25,04,13,15.70
2006,06,25,04,14,15.70
2006,06,25,04,15,15.70
2006,06,25,04,16,15.70
2006,06,25,04,17,15.80
2006,06,25,04,18,15.80
2006,06,25,04,19,15.80
2006,06,25,04,20,16.10
2006,06,25,04,21,16.40
2006,06,25,04,22,16.70
2006,06,25,04,23,16.90
2006,06,25,04,24,17.10
2006,06,25,04,25,17.40
2006,06,25,04,26,17.60
2006,06,25,04,27,17.90
2006,06,25,04,28,18.20
2006,06,25,04,29,18.40
2006,06,25,04,30,18.70
2006,06,25,04,31,18.80
2006,06,25,04,32,18.90
2006,06,25,04,33,19.00
2006,06,25,04,34,19.10
2006,06,25,04,35,19.10
2006,06,25,04,36,19.10
2006,06,25,04,37,19.20
2006,06,25,04,38,19.10
2006,06,25,04,39,19.10
2006,06,25,04,40,19.10
2006,06,25,04,41,19.10
2006,06,25,04,42,19.10
2006,06,25,04,43,19.10
2006,06,25,04,44,19.10
2006,06,25,04,45,19.10
2006,06,25,04,46,19.00
2006,06,25,04,47,18.90
2006,06,25,04,48,18.90
2006,06,25,04,49,18.90
2006,06,25,04,50,18.80
2006,06,25,04,51,18.70
2006,06,25,04,52,18.70
2006,06,25,04,53,18.70
2006,06,25,04,54,18.70
2006,06,25,04,55,18.60
2006,06,25,04,56,18.60
2006,06,25,04,57,18.50
2006,06,25,04,58,18.50
2006,06,25,04,59,18.40
2006,06,25,05,00,18.30
2006,06,25,05,01,18.30
2006,06,25,05,02,18.20
2006,06,25,05,03,18.20
2006,06,25,05,04,18.20
2006,06,25,05,05,18.20
2006,06,25,05,06,18.20
2006,06,25,05,07,18.10
2006,06,25,05,08,18.00
2006,06,25,05,09,17.90
2006,06,25,05,10,17.90
2006,06,25,05,11,17.90
2006,06,25,05,12,17.90
2006,06,25,05,13,17.90
2006,06,25,05,14,17.90
2006,06,25,05,15,17.90
2006,06,25,05,16,18.00
2006,06,25,05,17,18.20
2006,06,25,05,18,18.30
2006,06,25,05,19,18.50
2006,06,25,05,20,18.60
2006,06,25,05,21,18.70
2006,06,25,05,22,18.80
2006,06,25,05,23,18.80
2006,06,25,05,24,18.90
2006,06,25,05,25,18.90
2006,06,25,05,26,18.90
2006,06,25,05,27,18.90
2006,06,25,05,28,18.90
2006,06,25,05,29,18.90
2006,06,25,05,30,18.90
2006,06,25,05,31,18.90
2006,06,25,05,32,18.90
2006,06,25,05,33,18.90
2006,06,25,05,34,18.90
2006,06,25,05,35,18.80
2006,06,25,05,36,18.80
2006,06,25,05,37,18.80
2006,06,25,05,38,18.80
2006,06,25,05,39,18.80
2006,06,25,05,40,18.80
2006,06,25,05,41,18.70
2006,06,25,05,42,18.70
2006,06,25,05,43,18.70
2006,06,25,05,44,18.70
2006,06,25,05,45,18.70
2006,06,25,05,46,18.70
2006,06,25,05,47,18.70
2006,06,25,05,48,18.70
2006,06,25,05,49,18.70
2006,06,25,05,50,18.70
2006,06,25,05,51,18.70
2006,06,25,05,52,18.70
2006,06,25,05,53,18.70
2006,06,25,05,54,18.70
2006,06,25,05,55,18.70
2006,06,25,05,56,18.70
2006,06,25,05,57,18.80
2006,06,25,05,58,18.80
2006,06,25,05,59,18.80
2006,06,25,06,00,18.80
2006,06,25,06,01,18.80
2006,06,25,06,02,18.70
2006,06,25,06,03,18.60
2006,06,25,06,04,18.50
2006,06,25,06,05,18.40
2006,06,25,06,06,18.20
2006,06,25,06,07,18.20
2006,06,25,06,08,18.00
2006,06,25,06,09,17.90
2006,06,25,06,10,17.70
2006,06,25,06,11,17.70
2006,06,25,06,12,17.50
2006,06,25,06,13,17.50
2006,06,25,06,14,17.40
2006,06,25,06,15,17.30
2006,06,25,06,16,17.30
2006,06,25,06,17,17.30
2006,06,25,06,18,17.30
2006,06,25,06,19,17.30
2006,06,25,06,20,17.30
2006,06,25,06,21,17.30
2006,06,25,06,22,17.30
2006,06,25,06,23,17.30
2006,06,25,06,24,17.30
2006,06,25,06,25,17.30
2006,06,25,06,26,17.30
2006,06,25,06,27,17.30
2006,06,25,06,28,17.30
2006,06,25,06,29,17.30
2006,06,25,06,30,17.30
2006,06,25,06,31,17.30
2006,06,25,06,32,17.30
2006,06,25,06,33,17.30
2006,06,25,06,34,17.30
2006,06,25,06,35,17.30
2006,06,25,06,36,17.30
2006,06,25,06,37,17.40
2006,06,25,06,38,17.50
2006,06,25,06,39,17.60
2006,06,25,06,40,17.70
2006,06,25,06,41,17.80
2006,06,25,06,42,17.80
2006,06,25,06,43,17.90
2006,06,25,06,44,17.90
2006,06,25,06,45,17.90
2006,06,25,06,46,17.90
2006,06,25,06,47,17.90
2006,06,25,06,48,18.00
2006,06,25,06,49,18.10
2006,06,25,06,50,18.20
2006,06,25,06,51,18.30
2006,06,25,06,52,18.50
2006,06,25,06,53,18.60
2006,06,25,06,54,18.70
2006,06,25,06,55,18.90
2006,06,25,06,56,19.00
2006,06,25,06,57,19.10
2006,06,25,06,58,19.20
2006,06,25,06,59,19.30
2006,06,25,07,00,19.40
2006,06,25,07,01,19.50
2006,06,25,07,02,19.60
2006,06,25,07,03,19.70
2006,06,25,07,04,19.80
2006,06,25,07,05,19.90
2006,06,25,07,06,19.90
2006,06,25,07,07,20.00
2006,06,25,07,08,20.20
2006,06,25,07,09,20.30
2006,06,25,07,10,20.30
2006,06,25,07,11,20.40
2006,06,25,07,12,20.50
2006,06,25,07,13,20.50
2006,06,25,07,14,20.60
2006,06,25,07,15,20.70
2006,06,25,07,16,20.80
2006,06,25,07,17,20.90
2006,06,25,07,18,21.00
2006,06,25,07,19,21.10
2006,06,25,07,20,21.20
2006,06,25,07,21,21.30
2006,06,25,07,22,21.30
2006,06,25,07,23,21.30
2006,06,25,07,24,21.30
2006,06,25,07,25,21.30
2006,06,25,07,26,21.30
2006,06,25,07,27,21.30
2006,06,25,07,28,21.30
2006,06,25,07,29,21.20
2006,06,25,07,30,21.20
2006,06,25,07,31,21.20
2006,06,25,07,32,21.20
2006,06,25,07,33,21.20
2006,06,25,07,34,21.20
2006,06,25,07,35,21.10
2006,06,25,07,36,21.10
2006,06,25,07,37,21.10
2006,06,25,07,38,21.10
2006,06,25,07,39,21.10
2006,06,25,07,40,21.10
2006,06,25,07,41,21.20
2006,06,25,07,42,21.30
2006,06,25,07,43,21.30
2006,06,25,07,44,21.30
2006,06,25,07,45,21.30
2006,06,25,07,46,21.30
2006,06,25,07,47,21.30
2006,06,25,07,48,21.40
2006,06,25,07,49,21.40
2006,06,25,07,50,21.40
2006,06,25,07,51,21.50
2006,06,25,07,52,21.60
2006,06,25,07,53,21.60
2006,06,25,07,54,21.60
2006,06,25,07,55,21.60
2006,06,25,07,56,21.60
2006,06,25,07,57,21.60
2006,06,25,07,58,21.60
2006,06,25,07,59,21.60
2006,06,25,08,00,21.40
2006,06,25,08,01,21.40
2006,06,25,08,02,21.30
2006,06,25,08,03,21.30
2006,06,25,08,04,21.30
2006,06,25,08,05,21.30
2006,06,25,08,06,21.30
2006,06,25,08,07,21.30
2006,06,25,08,08,21.30
2006,06,25,08,09,21.30
2006,06,25,08,10,21.30
2006,06,25,08,11,21.30
2006,06,25,08,12,21.30
2006,06,25,08,13,21.30
2006,06,25,08,14,21.30
2006,06,25,08,15,21.30
2006,06,25,08,16,21.30
2006,06,25,08,17,21.30
2006,06,25,08,18,21.30
2006,06,25,08,19,21.30
2006,06,25,08,20,21.30
2006,06,25,08,21,21.30
2006,06,25,08,22,21.30
2006,06,25,08,23,21.30
2006,06,25,08,24,21.30
2006,06,25,08,25,21.40
2006,06,25,08,26,21.40
2006,06,25,08,27,21.40
2006,06,25,08,28,21.40
2006,06,25,08,29,21.40
2006,06,25,08,30,21.40
2006,06,25,08,31,21.40
2006,06,25,08,32,21.40
2006,06,25,08,33,21.50
2006,06,25,08,34,21.60
2006,06,25,08,35,21.60
2006,06,25,08,36,21.60
2006,06,25,08,37,21.60
2006,06,25,08,38,21.60
2006,06,25,08,39,21.60
2006,06,25,08,40,21.60
2006,06,25,08,41,21.70
2006,06,25,08,42,21.80
2006,06,25,08,43,21.80
2006,06,25,08,44,21.80
2006,06,25,08,45,21.80
2006,06,25,08,46,21.80
2006,06,25,08,47,21.80
2006,06,25,08,48,21.80
2006,06,25,08,49,21.80
2006,06,25,08,50,21.90
2006,06,25,08,51,21.90
2006,06,25,08,52,21.90
2006,06,25,08,53,21.90
2006,06,25,08,54,21.90
2006,06,25,08,55,22.00
2006,06,25,08,56,21.90
2006,06,25,08,57,21.90
2006,06,25,08,58,22.00
2006,06,25,08,59,22.00
2006,06,25,09,00,22.00
2006,06,25,09,01,22.00
2006,06,25,09,02,22.00
2006,06,25,09,03,21.90
2006,06,25,09,04,21.90
2006,06,25,09,05,22.00
2006,06,25,09,06,22.00
2006,06,25,09,07,22.00
2006,06,25,09,08,22.00
2006,06,25,09,09,22.00
2006,06,25,09,10,22.10
2006,06,25,09,11,22.10
2006,06,25,09,12,22.10
2006,06,25,09,13,22.10
2006,06,25,09,14,22.20
2006,06,25,09,15,22.20
2006,06,25,09,16,22.20
2006,06,25,09,17,22.20
2006,06,25,09,18,22.20
2006,06,25,09,19,22.20
2006,06,25,09,20,22.20
2006,06,25,09,21,22.20
2006,06,25,09,22,22.30
2006,06,25,09,23,22.30
2006,06,25,09,24,22.40
2006,06,25,09,25,22.50
2006,06,25,09,26,22.50
2006,06,25,09,27,22.40
2006,06,25,09,28,22.30
2006,06,25,09,29,22.30
2006,06,25,09,30,22.20
2006,06,25,09,31,22.20
2006,06,25,09,32,22.10
2006,06,25,09,33,22.10
2006,06,25,09,34,22.10
2006,06,25,09,35,22.20
2006,06,25,09,36,22.20
2006,06,25,09,37,22.20
2006,06,25,09,38,22.20
2006,06,25,09,39,22.30
2006,06,25,09,40,22.30
2006,06,25,09,41,22.30
2006,06,25,09,42,22.30
2006,06,25,09,43,22.40
2006,06,25,09,44,22.50
2006,06,25,09,45,22.60
2006,06,25,09,46,22.60
2006,06,25,09,47,22.70
2006,06,25,09,48,22.70
2006,06,25,09,49,22.70
2006,06,25,09,50,22.80
2006,06,25,09,51,22.90
2006,06,25,09,52,22.90
2006,06,25,09,53,22.90
2006,06,25,09,54,22.90
2006,06,25,09,55,22.90
2006,06,25,09,56,22.90
2006,06,25,09,57,22.90
2006,06,25,09,58,22.90
2006,06,25,09,59,23.00
2006,06,25,10,00,23.10
2006,06,25,10,01,23.20
2006,06,25,10,02,23.30
2006,06,25,10,03,23.40
2006,06,25,10,04,23.50
2006,06,25,10,05,23.60
2006,06,25,10,06,23.70
2006,06,25,10,07,23.70
2006,06,25,10,08,23.50
2006,06,25,10,09,23.40
2006,06,25,10,10,23.30
2006,06,25,10,11,23.10
2006,06,25,10,12,23.00
2006,06,25,10,13,22.90
2006,06,25,10,14,23.00
2006,06,25,10,15,23.10
2006,06,25,10,16,23.20
2006,06,25,10,17,23.30
2006,06,25,10,18,23.30
2006,06,25,10,19,23.40
2006,06,25,10,20,23.40
2006,06,25,10,21,23.50
2006,06,25,10,22,23.50
2006,06,25,10,23,23.40
2006,06,25,10,24,23.30
2006,06,25,10,25,23.30
2006,06,25,10,26,23.30
2006,06,25,10,27,23.30
2006,06,25,10,28,23.30
2006,06,25,10,29,23.30
2006,06,25,10,30,23.30
2006,06,25,10,31,23.30
2006,06,25,10,32,23.30
2006,06,25,10,33,23.40
2006,06,25,10,34,23.30
2006,06,25,10,35,23.40
2006,06,25,10,36,23.40
2006,06,25,10,37,23.30
2006,06,25,10,38,23.30
2006,06,25,10,39,23.30
2006,06,25,10,40,23.30
2006,06,25,10,41,23.30
2006,06,25,10,42,23.30
2006,06,25,10,43,23.40
2006,06,25,10,44,23.60
2006,06,25,10,45,23.70
2006,06,25,10,46,23.70
2006,06,25,10,47,23.70
2006,06,25,10,48,23.80
2006,06,25,10,49,23.90
2006,06,25,10,50,23.90
2006,06,25,10,51,23.80
2006,06,25,10,52,23.70
2006,06,25,10,53,23.70
2006,06,25,10,54,23.70
2006,06,25,10,55,23.70
2006,06,25,10,56,23.70
2006,06,25,10,57,23.70
2006,06,25,10,58,23.70
2006,06,25,10,59,23.70
2006,06,25,11,00,23.80
2006,06,25,11,01,23.80
2006,06,25,11,02,23.80
2006,06,25,11,03,23.80
2006,06,25,11,04,23.70
2006,06,25,11,05,23.70
2006,06,25,11,06,23.70
2006,06,25,11,07,23.70
2006,06,25,11,08,23.70
2006,06,25,11,09,23.70
2006,06,25,11,10,23.80
2006,06,25,11,11,23.90
2006,06,25,11,12,24.00
2006,06,25,11,13,24.10
2006,06,25,11,14,24.10
2006,06,25,11,15,24.10
2006,06,25,11,16,24.10
2006,06,25,11,17,24.20
2006,06,25,11,18,24.30
2006,06,25,11,19,24.40
2006,06,25,11,20,24.30
2006,06,25,11,21,24.30
2006,06,25,11,22,24.30
2006,06,25,11,23,24.40
2006,06,25,11,24,24.50
2006,06,25,11,25,24.60
2006,06,25,11,26,24.80
2006,06,25,11,27,24.90
2006,06,25,11,28,24.90
2006,06,25,11,29,24.90
2006,06,25,11,30,24.80
2006,06,25,11,31,24.70
2006,06,25,11,32,24.70
2006,06,25,11,33,24.50
2006,06,25,11,34,24.40
2006,06,25,11,35,24.30
2006,06,25,11,36,24.30
2006,06,25,11,37,24.30
2006,06,25,11,38,24.30
2006,06,25,11,39,24.20
2006,06,25,11,40,24.30
2006,06,25,11,41,24.50
2006,06,25,11,42,24.60
2006,06,25,11,43,24.70
2006,06,25,11,44,24.70
2006,06,25,11,45,24.70
2006,06,25,11,46,24.60
2006,06,25,11,47,24.60
2006,06,25,11,48,24.60
2006,06,25,11,49,24.80
2006,06,25,11,50,24.80
2006,06,25,11,51,24.80
2006,06,25,11,52,24.90
2006,06,25,11,53,24.90
2006,06,25,11,54,25.00
2006,06,25,11,55,25.10
2006,06,25,11,56,25.10
2006,06,25,11,57,25.20
2006,06,25,11,58,25.20
2006,06,25,11,59,25.20
2006,06,25,12,00,25.30
2006,06,25,12,01,25.30
2006,06,25,12,02,25.20
2006,06,25,12,03,25.20
2006,06,25,12,04,25.10
2006,06,25,12,05,25.10
2006,06,25,12,06,25.10
2006,06,25,12,07,25.00
2006,06,25,12,08,25.00
2006,06,25,12,09,24.90
2006,06,25,12,10,24.90
2006,06,25,12,11,24.90
2006,06,25,12,12,24.80
2006,06,25,12,13,24.90
2006,06,25,12,14,25.10
2006,06,25,12,15,25.10
2006,06,25,12,16,25.20
2006,06,25,12,17,25.20
2006,06,25,12,18,25.20
2006,06,25,12,19,25.20
2006,06,25,12,20,25.00
2006,06,25,12,21,25.00
2006,06,25,12,22,24.90
2006,06,25,12,23,24.90
2006,06,25,12,24,25.00
2006,06,25,12,25,25.00
2006,06,25,12,26,25.00
2006,06,25,12,27,25.10
2006,06,25,12,28,25.20
2006,06,25,12,29,25.20
2006,06,25,12,30,25.20
2006,06,25,12,31,25.20
2006,06,25,12,32,25.20
2006,06,25,12,33,25.10
2006,06,25,12,34,25.10
2006,06,25,12,35,25.10
2006,06,25,12,36,25.10
2006,06,25,12,37,25.10
2006,06,25,12,38,25.20
2006,06,25,12,39,25.10
2006,06,25,12,40,25.10
2006,06,25,12,41,25.10
2006,06,25,12,42,25.20
2006,06,25,12,43,25.10
2006,06,25,12,44,25.20
2006,06,25,12,45,25.20
2006,06,25,12,46,25.20
2006,06,25,12,47,25.30
2006,06,25,12,48,25.30
2006,06,25,12,49,25.40
2006,06,25,12,50,25.50
2006,06,25,12,51,25.50
2006,06,25,12,52,25.60
2006,06,25,12,53,25.70
2006,06,25,12,54,25.80
2006,06,25,12,55,25.90
2006,06,25,12,56,25.90
2006,06,25,12,57,26.00
2006,06,25,12,58,26.10
2006,06,25,12,59,26.10
2006,06,25,13,00,26.30
2006,06,25,13,01,26.30
2006,06,25,13,02,26.30
2006,06,25,13,03,26.30
2006,06,25,13,04,26.30
2006,06,25,13,05,26.40
2006,06,25,13,06,26.50
2006,06,25,13,07,26.60
2006,06,25,13,08,26.70
2006,06,25,13,09,26.70
2006,06,25,13,10,26.70
2006,06,25,13,11,26.70
2006,06,25,13,12,26.70
2006,06,25,13,13,26.70
2006,06,25,13,14,26.80
2006,06,25,13,15,26.70
2006,06,25,13,16,26.70
2006,06,25,13,17,26.80
2006,06,25,13,18,26.80
2006,06,25,13,19,26.70
2006,06,25,13,20,26.70
2006,06,25,13,21,26.60
2006,06,25,13,22,26.60
2006,06,25,13,23,26.50
2006,06,25,13,24,26.40
2006,06,25,13,25,26.40
2006,06,25,13,26,26.40
2006,06,25,13,27,26.50
2006,06,25,13,28,26.60
2006,06,25,13,29,26.70
2006,06,25,13,30,26.80
2006,06,25,13,31,26.80
2006,06,25,13,32,26.80
2006,06,25,13,33,26.80
2006,06,25,13,34,26.70
2006,06,25,13,35,26.80
2006,06,25,13,36,26.90
2006,06,25,13,37,26.90
2006,06,25,13,38,27.00
2006,06,25,13,39,26.90
2006,06,25,13,40,26.90
2006,06,25,13,41,26.90
2006,06,25,13,42,26.90
2006,06,25,13,43,26.90
2006,06,25,13,44,27.00
2006,06,25,13,45,27.10
2006,06,25,13,46,27.00
2006,06,25,13,47,26.80
2006,06,25,13,48,26.80
2006,06,25,13,49,26.80
2006,06,25,13,50,26.90
2006,06,25,13,51,26.80
2006,06,25,13,52,26.80
2006,06,25,13,53,26.80
2006,06,25,13,54,26.80
2006,06,25,13,55,26.80
2006,06,25,13,56,26.90
2006,06,25,13,57,26.90
2006,06,25,13,58,26.80
2006,06,25,13,59,26.80
2006,06,25,14,00,26.80
2006,06,25,14,01,26.80
2006,06,25,14,02,26.80
2006,06,25,14,03,26.90
2006,06,25,14,04,26.90
2006,06,25,14,05,26.90
2006,06,25,14,06,26.80
2006,06,25,14,07,26.80
2006,06,25,14,08,26.90
2006,06,25,14,09,27.00
2006,06,25,14,10,27.10
2006,06,25,14,11,27.30
2006,06,25,14,12,27.40
2006,06,25,14,13,27.50
2006,06,25,14,14,27.70
2006,06,25,14,15,27.70
2006,06,25,14,16,27.70
2006,06,25,14,17,27.90
2006,06,25,14,18,28.00
2006,06,25,14,19,28.10
2006,06,25,14,20,28.10
2006,06,25,14,21,28.20
2006,06,25,14,22,28.20
2006,06,25,14,23,28.10
2006,06,25,14,24,28.00
2006,06,25,14,25,27.80
2006,06,25,14,26,27.70
2006,06,25,14,27,27.60
2006,06,25,14,28,27.40
2006,06,25,14,29,27.40
2006,06,25,14,30,27.30
2006,06,25,14,31,27.30
2006,06,25,14,32,27.30
2006,06,25,14,33,27.40
2006,06,25,14,34,27.50
2006,06,25,14,35,27.70
2006,06,25,14,36,27.70
2006,06,25,14,37,27.70
2006,06,25,14,38,27.80
2006,06,25,14,39,27.90
2006,06,25,14,40,27.90
2006,06,25,14,41,28.00
2006,06,25,14,42,28.10
2006,06,25,14,43,28.10
2006,06,25,14,44,28.00
2006,06,25,14,45,28.00
2006,06,25,14,46,28.00
2006,06,25,14,47,28.00
2006,06,25,14,48,28.00
2006,06,25,14,49,28.10
2006,06,25,14,50,28.20
2006,06,25,14,51,28.20
2006,06,25,14,52,28.20
2006,06,25,14,53,28.10
2006,06,25,14,54,28.00
2006,06,25,14,55,27.90
2006,06,25,14,56,27.90
2006,06,25,14,57,27.90
2006,06,25,14,58,27.90
2006,06,25,14,59,28.00
2006,06,25,15,00,28.00
2006,06,25,15,01,28.00
2006,06,25,15,02,28.00
2006,06,25,15,03,28.10
2006,06,25,15,04,28.10
2006,06,25,15,05,28.10
2006,06,25,15,06,28.10
2006,06,25,15,07,28.20
2006,06,25,15,08,28.30
2006,06,25,15,09,28.40
2006,06,25,15,10,28.50
2006,06,25,15,11,28.70
2006,06,25,15,12,28.80
2006,06,25,15,13,28.80
2006,06,25,15,14,28.70
2006,06,25,15,15,28.60
2006,06,25,15,16,28.60
2006,06,25,15,17,28.70
2006,06,25,15,18,28.60
2006,06,25,15,19,28.60
2006,06,25,15,20,28.50
2006,06,25,15,21,28.30
2006,06,25,15,22,28.30
2006,06,25,15,23,28.30
2006,06,25,15,24,28.20
2006,06,25,15,25,28.20
2006,06,25,15,26,28.10
2006,06,25,15,27,28.10
2006,06,25,15,28,28.10
2006,06,25,15,29,28.10
2006,06,25,15,30,28.10
2006,06,25,15,31,28.00
2006,06,25,15,32,28.00
2006,06,25,15,33,28.00
2006,06,25,15,34,28.10
2006,06,25,15,35,28.10
2006,06,25,15,36,28.30
2006,06,25,15,37,28.60
2006,06,25,15,38,28.60
2006,06,25,15,39,28.60
2006,06,25,15,40,28.60
2006,06,25,15,41,28.40
2006,06,25,15,42,28.20
2006,06,25,15,43,28.20
2006,06,25,15,44,28.20
2006,06,25,15,45,28.30
2006,06,25,15,46,28.40
2006,06,25,15,47,28.40
2006,06,25,15,48,28.70
2006,06,25,15,49,28.80
2006,06,25,15,50,28.70
2006,06,25,15,51,28.70
2006,06,25,15,52,28.80
2006,06,25,15,53,28.80
2006,06,25,15,54,28.90
2006,06,25,15,55,28.90
2006,06,25,15,56,28.80
2006,06,25,15,57,28.90
2006,06,25,15,58,28.80
2006,06,25,15,59,28.80
2006,06,25,16,00,28.80
2006,06,25,16,01,28.80
2006,06,25,16,02,28.80
2006,06,25,16,03,28.70
2006,06,25,16,04,28.60
2006,06,25,16,05,28.60
2006,06,25,16,06,28.60
2006,06,25,16,07,28.60
2006,06,25,16,08,28.70
2006,06,25,16,09,28.80
2006,06,25,16,10,28.80
2006,06,25,16,11,28.80
2006,06,25,16,12,28.80
2006,06,25,16,13,28.80
2006,06,25,16,14,28.90
2006,06,25,16,15,29.00
2006,06,25,16,16,29.10
2006,06,25,16,17,29.30
2006,06,25,16,18,29.40
2006,06,25,16,19,29.50
2006,06,25,16,20,29.60
2006,06,25,16,21,29.70
2006,06,25,16,22,29.70
2006,06,25,16,23,29.70
2006,06,25,16,24,29.60
2006,06,25,16,25,29.50
2006,06,25,16,26,29.60
2006,06,25,16,27,29.60
2006,06,25,16,28,29.60
2006,06,25,16,29,29.50
2006,06,25,16,30,29.40
2006,06,25,16,31,29.40
2006,06,25,16,32,29.40
2006,06,25,16,33,29.40
2006,06,25,16,34,29.40
2006,06,25,16,35,29.50
2006,06,25,16,36,29.50
2006,06,25,16,37,29.60
2006,06,25,16,38,29.60
2006,06,25,16,39,29.60
2006,06,25,16,40,29.60
2006,06,25,16,41,29.60
2006,06,25,16,42,29.60
2006,06,25,16,43,29.60
2006,06,25,16,44,29.60
2006,06,25,16,45,29.60
2006,06,25,16,46,29.50
2006,06,25,16,47,29.50
2006,06,25,16,48,29.50
2006,06,25,16,49,29.50
2006,06,25,16,50,29.40
2006,06,25,16,51,29.50
2006,06,25,16,52,29.50
2006,06,25,16,53,29.50
2006,06,25,16,54,29.60
2006,06,25,16,55,29.60
2006,06,25,16,56,29.70
2006,06,25,16,57,29.80
2006,06,25,16,58,29.80
2006,06,25,16,59,29.90
2006,06,25,17,00,29.90
2006,06,25,17,01,29.90
2006,06,25,17,02,30.00
2006,06,25,17,03,30.10
2006,06,25,17,04,30.20
2006,06,25,17,05,30.10
2006,06,25,17,06,30.10
2006,06,25,17,07,30.00
2006,06,25,17,08,29.90
2006,06,25,17,09,29.90
2006,06,25,17,10,29.90
2006,06,25,17,11,29.90
2006,06,25,17,12,29.90
2006,06,25,17,13,29.90
2006,06,25,17,14,29.90
2006,06,25,17,15,29.90
2006,06,25,17,16,29.90
2006,06,25,17,17,29.90
2006,06,25,17,18,29.90
2006,06,25,17,19,29.90